This is the latest recevied weather packets stored in our database for station/object KF7U. If no packets are shown the sender has not sent any weather packets the latest 10 day(s).
| Time | Temp. | Humidity | Pressure | Rain* | Wind** | Luminosity | Snow |
|---|---|---|---|---|---|---|---|
| 1777835255 | 33.33° C | 21% | 1009.5 hPa | 0 mm | - | 996 W/m² | - |
| 1777834955 | 32.78° C | 21% | 1009.5 hPa | 0 mm | - | - | - |
| 1777834655 | 32.78° C | 22% | 1009.8 hPa | 0 mm | - | - | - |
| 1777834354 | 32.22° C | 22% | 1009.8 hPa | 0 mm | - | 848 W/m² | - |
| 1777834054 | 32.78° C | 21% | 1009.8 hPa | 0 mm | - | 625 W/m² | - |
| 1777833754 | 32.78° C | 19% | 1009.8 hPa | 0 mm | - | 663 W/m² | - |
| 1777833454 | 32.78° C | 19% | 1009.8 hPa | 0 mm | - | 709 W/m² | - |
| 1777833154 | 32.78° C | 19% | 1010.2 hPa | 0 mm | - | 671 W/m² | - |
| 1777832854 | 32.78° C | 19% | 1010.2 hPa | 0 mm | - | 757 W/m² | - |
| 1777832554 | 32.78° C | 20% | 1010.2 hPa | 0 mm | - | 883 W/m² | - |
| 1777832254 | 32.22° C | 20% | 1010.2 hPa | 0 mm | - | 911 W/m² | - |
| 1777831954 | 32.22° C | 22% | 1010.2 hPa | 0 mm | - | 895 W/m² | - |
| 1777831654 | 32.22° C | 22% | 1010.5 hPa | 0 mm | - | 873 W/m² | - |
| 1777831355 | 32.22° C | 22% | 1010.5 hPa | 0 mm | - | 768 W/m² | - |
| 1777831054 | 31.67° C | 23% | 1010.5 hPa | 0 mm | - | 657 W/m² | - |
| 1777830754 | 31.11° C | 22% | 1010.5 hPa | 0 mm | - | 682 W/m² | - |
| 1777830455 | 31.67° C | 22% | 1010.5 hPa | 0 mm | - | 635 W/m² | - |
| 1777830154 | 31.67° C | 22% | 1010.5 hPa | 0 mm | - | 747 W/m² | - |
| 1777829554 | 31.11° C | 22% | 1010.8 hPa | 0 mm | - | 761 W/m² | - |
| 1777829254 | 31.11° C | 23% | 1010.8 hPa | 0 mm | - | 672 W/m² | - |
| 1777828954 | 31.11° C | 22% | 1010.8 hPa | 0 mm | - | 586 W/m² | - |
| 1777828654 | 30.56° C | 23% | 1010.8 hPa | 0 mm | - | 660 W/m² | - |
| 1777828354 | 30.56° C | 23% | 1010.8 hPa | 0 mm | - | 553 W/m² | - |
| 1777828055 | 31.11° C | 24% | 1010.8 hPa | 0 mm | - | 566 W/m² | - |
| 1777827754 | 31.11° C | 24% | 1010.8 hPa | 0 mm | - | 584 W/m² | - |
* Rain latest hour (hover to see other rain measurements)
** Current wind speed in m/s (hover to see current wind gust speed)